Location: Ehrke Reservoir
(40.0279°N, 99.6641°W)
Time: 21:30:34
(UTC+00:00)

Cosmos 1340 Rocket - Pass Details

Date: 20 January 2020
Orbit: 530 x 558 km, 81.2° (Epoch: 25 February)

Event Time Altitude Azimuth Distance (km) Brightness Sun altitude
Rises 00:40:10 0° 354° (N) 2,691 6.2 -11.2°
Reaches altitude 10° 00:42:20 10° 357° (N) 1,799 5.3 -11.6°
Maximum altitude 00:46:16 64° 79° (E) 600 2.7 -12.3°
Drops below altitude 10° 00:50:12 10° 162° (SSE) 1,800 5.4 -13.0°
Sets 00:52:22 0° 165° (SSE) 2,692 6.4 -13.4°
